This is the latest recevied weather packets stored in our database for station/object KI5NXU. If no packets are shown the sender has not sent any weather packets the latest 10 day(s).
| Time | Temp. | Humidity | Pressure | Rain* | Wind** | Luminosity | Snow |
|---|---|---|---|---|---|---|---|
| 1787950931 | 38.89° C | 29% | 1015.6 hPa | 0 mm | - | 538 W/m² | - |
| 1787950627 | 38.89° C | 28% | 1015.8 hPa | 0 mm | - | 527 W/m² | - |
| 1787950323 | 39.44° C | 28% | 1015.8 hPa | 0 mm | - | 570 W/m² | - |
| 1787950018 | 40° C | 28% | 1016.1 hPa | 0 mm | - | 461 W/m² | - |
| 1787949714 | 39.44° C | 27% | 1015.9 hPa | 0 mm | - | 595 W/m² | - |
| 1787949413 | 40° C | 27% | 1016.1 hPa | 0 mm | - | 617 W/m² | - |
| 1787949108 | 40° C | 27% | 1016 hPa | 0 mm | - | 642 W/m² | - |
| 1787948805 | 39.44° C | 27% | 1016.2 hPa | 0 mm | - | 633 W/m² | - |
| 1787948504 | 38.33° C | 28% | 1016.3 hPa | 0 mm | - | 596 W/m² | - |
| 1787948200 | 39.44° C | 28% | 1016.3 hPa | 0 mm | - | 612 W/m² | - |
| 1787947898 | 39.44° C | 26% | 1016.6 hPa | 0 mm | - | 610 W/m² | - |
| 1787947594 | 38.89° C | 27% | 1016.7 hPa | 0 mm | - | 629 W/m² | - |
| 1787947293 | 39.44° C | 28% | 1016.7 hPa | 0 mm | - | 617 W/m² | - |
| 1787946992 | 40° C | 28% | 1017 hPa | 0 mm | - | 459 W/m² | - |
| 1787946690 | 39.44° C | 28% | 1016.9 hPa | 0 mm | - | 666 W/m² | - |
| 1787946386 | 38.89° C | 28% | 1017 hPa | 0 mm | - | 665 W/m² | - |
| 1787946086 | 38.89° C | 28% | 1016.7 hPa | 0 mm | - | 653 W/m² | - |
| 1787945781 | 38.33° C | 29% | 1017 hPa | 0 mm | - | 688 W/m² | - |
| 1787945475 | 38.89° C | 27% | 1016.8 hPa | 0 mm | - | 678 W/m² | - |
| 1787945171 | 38.89° C | 28% | 1017.1 hPa | 0 mm | - | 682 W/m² | - |
| 1787944869 | 37.78° C | 28% | 1017 hPa | 0 mm | - | 649 W/m² | - |
| 1787944568 | 37.78° C | 30% | 1017.1 hPa | 0 mm | - | 164 W/m² | - |
| 1787944264 | 37.78° C | 28% | 1017.3 hPa | 0 mm | - | 617 W/m² | - |
| 1787943970 | 37.78° C | 30% | 1017.1 hPa | 0 mm | - | 603 W/m² | - |
| 1787943660 | 38.33° C | 29% | 1017.5 hPa | 0 mm | - | 613 W/m² | - |
* Rain latest hour (hover to see other rain measurements)
** Current wind speed in m/s (hover to see current wind gust speed)